Weather History for Big Sandy Reg AP, Prestonsbur, KY

Change the Weather History Date:

Monday, May 26, 2014

  Actual Average Record
Temperature  
Mean Temperature 70 °F -  
Max Temperature 85 °F - - ()
Min Temperature 54 °F - - ()
Cooling Degree Days 4    
Growing Degree Days 20 (Base 50)    
Moisture  
Dew Point 59 °F    
Average Humidity 68    
Maximum Humidity 94    
Minimum Humidity 46    
Precipitation  
Precipitation 0.00 in - - ()
Sea Level Pressure  
Sea Level Pressure 30.14 in    
Wind  
Wind Speed 1 mph (WSW)    
Max Wind Speed 8 mph    
Max Gust Speed -    
Visibility 10 miles    
Events      
T = Trace of Precipitation, MM = Missing Value Source: NWS Daily Summary

Daily Weather History Graph

Daily Weather History Graph

Search for Another Location

Airport:

Trip Planner

Search our weather history database for the weather conditions in past years. The results will help you decide how hot, cold, wet, or windy it might be!

Date:

Astronomy

May. 26, 2014 Rise Set
Actual Time 6:13 AM EDT 8:42 PM EDT
Civil Twilight 5:42 AM EDT 9:12 PM EDT
Nautical Twilight 5:05 AM EDT 9:50 PM EDT
Astronomical Twilight 4:23 AM EDT 10:32 PM EDT
Moon 4:51 AM EDT (5/26) 6:46 PM EDT (5/26)
Length of Visible Light 15h 29m
Length of Day
14h 29m
Waning Crescent, 5% of the Moon is Illuminated
May 26
Waning Crescent
May 28
New
Jun 5
First Quarter
Jun 13
Full
Jun 19
Last Quarter

Hourly Weather History & Observations

Time (EDT) Temp. Heat Index Dew Point Humidity Pressure Visibility Wind Dir Wind Speed Gust Speed Precip Events Conditions
12:15 AM 61.2 °F - 54.7 °F 79% 30.15 in 10.0 mi Calm Calm - N/A   Clear
12:35 AM 60.3 °F - 55.0 °F 83% 30.15 in 10.0 mi Calm Calm - N/A   Clear
12:55 AM 61.3 °F - 53.2 °F 75% 30.14 in 10.0 mi Calm Calm - N/A   Clear
1:15 AM 61.3 °F - 53.6 °F 76% 30.14 in 10.0 mi Calm Calm - N/A   Clear
1:35 AM 62.6 °F - 53.2 °F 71% 30.14 in 10.0 mi Calm Calm - N/A   Clear
1:55 AM 60.8 °F - 53.1 °F 76% 30.14 in 10.0 mi Calm Calm - N/A   Clear
2:15 AM 60.4 °F - 53.1 °F 77% 30.14 in 10.0 mi Calm Calm - N/A   Clear
2:35 AM 60.4 °F - 53.1 °F 77% 30.14 in 10.0 mi Calm Calm - N/A   Clear
2:55 AM 58.5 °F - 54.1 °F 86% 30.14 in 10.0 mi Calm Calm - N/A   Clear
3:15 AM 56.8 °F - 53.2 °F 88% 30.14 in 10.0 mi Calm Calm - N/A   Clear
3:35 AM 58.1 °F - 53.6 °F 85% 30.14 in 10.0 mi Calm Calm - N/A   Clear
3:55 AM 58.6 °F - 53.2 °F 82% 30.14 in 10.0 mi Calm Calm - N/A   Clear
4:15 AM 57.9 °F - 53.6 °F 86% 30.14 in 10.0 mi Calm Calm - N/A   Clear
4:35 AM 56.8 °F - 53.6 °F 89% 30.15 in 10.0 mi Calm Calm - N/A   Clear
4:55 AM 57.2 °F - 53.2 °F 87% 30.15 in 10.0 mi Calm Calm - N/A   Clear
5:15 AM 57.2 °F - 53.2 °F 87% 30.15 in 10.0 mi Calm Calm - N/A   Clear
5:35 AM 55.9 °F - 53.1 °F 90% 30.16 in 10.0 mi Calm Calm - N/A   Clear
5:55 AM 54.9 °F - 53.1 °F 94% 30.17 in 10.0 mi Calm Calm - N/A   Clear
6:15 AM 57.4 °F - 53.4 °F 87% 30.17 in 10.0 mi Calm Calm - N/A   Clear
6:35 AM 57.2 °F - 53.4 °F 87% 30.18 in 10.0 mi Calm Calm - N/A   Clear
6:55 AM 57.9 °F - 53.6 °F 86% 30.18 in 10.0 mi Calm Calm - N/A   Clear
7:15 AM 59.7 °F - 55.0 °F 84% 30.18 in 10.0 mi Calm Calm - N/A   Clear
7:35 AM 59.7 °F - 55.0 °F 84% 30.19 in 10.0 mi Calm Calm - N/A   Clear
7:55 AM 60.6 °F - 55.9 °F 85% 30.19 in 10.0 mi Calm Calm - N/A   Clear
8:15 AM 63.1 °F - 56.5 °F 79% 30.19 in 10.0 mi South 3.5 mph - N/A   Clear
8:35 AM 64.9 °F - 57.4 °F 76% 30.19 in 10.0 mi South 3.5 mph - N/A   Scattered Clouds
8:55 AM 67.1 °F - 58.1 °F 73% 30.19 in 10.0 mi South 3.5 mph - N/A   Scattered Clouds
9:15 AM 68.9 °F - 58.6 °F 70% 30.19 in 10.0 mi South 3.5 mph - N/A   Mostly Cloudy
9:35 AM 69.3 °F - 58.5 °F 68% 30.19 in 10.0 mi South 4.6 mph - N/A   Scattered Clouds
9:55 AM 70.7 °F - 59.0 °F 66% 30.19 in 10.0 mi SW 3.5 mph - N/A   Clear
10:15 AM 71.1 °F - 59.5 °F 67% 30.19 in 10.0 mi SW 4.6 mph - N/A   Clear
10:35 AM 72.9 °F - 60.6 °F 65% 30.19 in 10.0 mi SW 4.6 mph - N/A   Clear
11:15 AM 75.2 °F - 62.2 °F 64% 30.19 in 10.0 mi SW 6.9 mph - N/A   Clear
11:35 AM 76.6 °F - 63.3 °F 63% 30.19 in 10.0 mi SSW 4.6 mph - N/A   Clear
11:55 AM 77.4 °F - 63.0 °F 61% 30.19 in 10.0 mi Calm Calm - N/A   Clear
12:15 PM 78.4 °F - 63.5 °F 60% 30.18 in 10.0 mi SSE 3.5 mph - N/A   Clear
12:55 PM 79.5 °F - 63.5 °F 58% 30.17 in 10.0 mi West 5.8 mph - N/A   Unknown
1:15 PM 80.1 °F 81.7 °F 63.9 °F 58% 30.17 in 10.0 mi West 4.6 mph - N/A   Unknown
1:35 PM 80.6 °F 81.9 °F 63.3 °F 55% 30.17 in 10.0 mi West 4.6 mph - N/A   Unknown
2:15 PM 81.1 °F 82.5 °F 63.5 °F 55% 30.16 in 10.0 mi WNW 6.9 mph - N/A   Unknown
2:35 PM 82.0 °F 83.3 °F 63.3 °F 53% 30.14 in 10.0 mi NW 3.5 mph - N/A   Unknown
2:55 PM 82.2 °F 83.3 °F 62.8 °F 52% 30.14 in 10.0 mi West 4.6 mph - N/A   Unknown
3:20 PM 83.3 °F 84.3 °F 63.1 °F 50% 30.13 in 10.0 mi WSW 3.5 mph - N/A   Unknown
3:35 PM 83.7 °F 84.5 °F 62.8 °F 49% 30.12 in 10.0 mi West 3.5 mph - N/A   Unknown
3:55 PM 85.1 °F 85.9 °F 62.8 °F 47% 30.11 in 10.0 mi SSW 8.1 mph - N/A   Unknown
4:15 PM 84.0 °F 84.7 °F 62.4 °F 48% 30.11 in 10.0 mi NW 5.8 mph - N/A   Unknown
4:35 PM 84.2 °F 85.2 °F 63.3 °F 49% 30.10 in 10.0 mi NW 3.5 mph - N/A   Unknown
4:55 PM 84.4 °F 85.4 °F 63.5 °F 49% 30.10 in 10.0 mi WNW 4.6 mph - N/A   Unknown
5:15 PM 83.7 °F 83.9 °F 61.2 °F 46% 30.09 in 10.0 mi WSW 3.5 mph - N/A   Unknown
5:35 PM 83.7 °F 84.3 °F 62.1 °F 48% 30.09 in 10.0 mi West 5.8 mph - N/A   Unknown
5:55 PM 83.7 °F 84.1 °F 61.5 °F 47% 30.08 in 10.0 mi NW 3.5 mph - N/A   Unknown
6:15 PM 82.9 °F 83.5 °F 61.3 °F 48% 30.08 in 10.0 mi West 5.8 mph - N/A   Unknown
6:35 PM 82.6 °F 83.2 °F 61.7 °F 49% 30.08 in 10.0 mi WNW 4.6 mph - N/A   Unknown
6:55 PM 81.9 °F 82.9 °F 62.8 °F 52% 30.08 in 10.0 mi West 3.5 mph - N/A   Unknown
7:15 PM 81.1 °F 82.4 °F 63.1 °F 54% 30.08 in 10.0 mi Calm Calm - N/A   Unknown
7:35 PM 80.6 °F 81.9 °F 63.3 °F 55% 30.08 in 10.0 mi Calm Calm - N/A   Unknown
7:55 PM 79.7 °F - 63.0 °F 56% 30.08 in 10.0 mi Calm Calm - N/A   Unknown
8:15 PM 79.2 °F - 63.1 °F 58% 30.08 in 10.0 mi Calm Calm - N/A   Unknown
8:35 PM 78.3 °F - 63.0 °F 59% 30.07 in 10.0 mi Calm Calm - N/A   Unknown
8:55 PM 77.0 °F - 63.1 °F 62% 30.08 in 10.0 mi Calm Calm - N/A   Unknown
9:15 PM 75.7 °F - 63.5 °F 66% 30.08 in 10.0 mi Calm Calm - N/A   Unknown
9:35 PM 74.8 °F - 63.9 °F 69% 30.08 in 10.0 mi Calm Calm - N/A   Unknown
9:55 PM 75.7 °F - 63.0 °F 64% 30.09 in 10.0 mi Calm Calm - N/A   Unknown
10:15 PM 73.9 °F - 63.1 °F 69% 30.10 in 10.0 mi WSW 5.8 mph - N/A   Unknown
10:35 PM 73.4 °F - 63.5 °F 71% 30.11 in 10.0 mi West 3.5 mph - N/A   Unknown
10:55 PM 73.8 °F - 63.5 °F 70% 30.11 in 10.0 mi WSW 3.5 mph - N/A   Unknown
11:15 PM 73.4 °F - 63.1 °F 70% 30.11 in 10.0 mi Calm Calm - N/A   Unknown
11:35 PM 73.0 °F - 63.0 °F 71% 30.11 in 10.0 mi West 3.5 mph - N/A   Unknown
11:55 PM 72.9 °F - 62.8 °F 71% 30.11 in 10.0 mi Calm Calm - N/A   Unknown